Location: Breitenfeld
(46.8500°N, 15.6333°E)
Time: 00:56:00
(UTC+00:00)

Daily predictions for brighter satellites

Satellite Brightness Start Highest point End
(mag) Time Altitude Azimuth Time Altitude Azimuth Time Altitude Azimuth
BREEZE-M R/B 3.0 00:04:50 89° NNW 00:04:52 89° NNE 00:11:34 10° ESE
Cosmos 1733 3.8 00:01:32 10° N 00:04:48 54° NE 00:04:48 54° NE
SeaSat 1 3.9 00:02:11 10° N 00:06:26 30° NW 00:08:07 24° W
Sich 1 Rocket 3.5 00:02:38 10° N 00:07:12 85° WNW 00:07:12 85° WNW
Cosmos 1066 Rocket 4.2 00:06:18 61° S 00:07:24 90° SW 00:13:11 10° N
Cosmos 1378 4.1 00:08:51 41° NNW 00:08:51 41° NNW 00:11:37 10° N
USA 215 4.4 00:10:09 24° WSW 00:10:09 24° WSW 00:13:50 10° WNW
Cosmos 1943 Rocket 3.2 00:09:26 30° W 00:11:13 37° NW 00:16:27 10° NNE
ATLAS 2AS CENTAUR R/B 3.7 00:06:11 10° NW 00:11:46 29° WSW 00:11:46 29° WSW
Cosmos 1356 Rocket 3.9 00:08:25 10° NNW 00:11:59 52° WNW 00:11:59 52° WNW
Cosmos 1607 4.0 00:11:32 53° S 00:13:06 74° ESE 00:19:36 10° NE
Cosmos 2298 Rocket 3.9 00:13:51 64° SW 00:14:37 76° WNW 00:19:57 10° NNE
Cosmos 1461 3.2 00:15:16 63° W 00:15:40 66° NW 00:20:18 10° NNE
Okean 1 Rocket 4.4 00:17:22 10° N 00:21:28 36° ENE 00:23:11 26° ESE
SL-16 R/B 2.7 00:21:04 30° SSE 00:24:19 74° ENE 00:30:36 10° NNW
Cosmos 44 Rocket 4.4 00:19:23 10° NNW 00:24:27 46° NE 00:29:24 10° ESE
Cosmos 1833 4.1 00:19:18 10° NNW 00:25:02 69° WSW 00:26:12 54° S
Meteor 1-15 Rocket 4.2 00:20:29 10° NNW 00:26:07 70° W 00:27:18 54° SSW
Cosmos 1048 Rocket 4.3 00:21:10 10° NNW 00:26:18 48° WSW 00:26:21 48° WSW
Cosmos 1726 3.9 00:25:38 10° NNE 00:28:52 27° ENE 00:30:09 22° ESE
Meteor 1-22 Rocket 4.4 00:25:28 10° N 00:31:22 76° ENE 00:34:08 34° SSE
NPP 4.0 00:29:26 10° NNE 00:34:46 57° E 00:36:34 39° SSE
Cosmos 1842 3.5 00:35:20 57° ESE 00:35:29 58° E 00:39:18 10° NNE
Cosmos 2151 Rocket 3.5 00:31:58 10° NNW 00:36:30 79° W 00:36:57 70° SSW
Okean 2 Rocket 3.1 00:32:49 10° NNW 00:37:10 60° W 00:37:10 60° W
Cosmos 1674 Rocket 3.7 00:37:44 58° SSE 00:38:25 70° E 00:42:52 10° NNE
Gbstr 26 Del rocket 3.6 00:32:06 10° WNW 00:38:31 65° SW 00:43:37 10° SE
Cosmos 2297 Rocket 4.4 00:34:15 10° N 00:38:57 26° NE 00:43:37 10° ESE
Meteor 1-29 4.2 00:36:41 10° NNE 00:39:46 33° E 00:39:49 33° E
BREEZE-M DEB (TANK) 4.0 00:39:13 44° S 00:40:25 54° SE 00:53:15 10° ENE
Helios 1A 4.3 00:41:18 27° WNW 00:41:18 27° WNW 00:44:08 10° NW
Cosmos 2344 4.3 00:33:41 10° NW 00:43:03 76° SW 00:56:13 10° SSE
Okean 2 4.0 00:42:55 43° SE 00:43:45 51° E 00:47:50 10° NNE
Cosmos 1656 Rocket 4.0 00:42:15 41° WSW 00:43:49 55° WNW 00:49:15 10° NNE
AQUA 4.3 00:39:28 10° NNE 00:44:10 54° E 00:45:37 39° SSE
ADEOS Rocket 4.4 00:37:43 10° SE 00:44:35 49° ENE 00:51:54 10° N
Helios 1B rocket 2.3 00:41:52 10° NNE 00:46:01 84° E 00:46:30 68° S
Landsat 4 4.2 00:44:10 10° NNE 00:47:49 48° E 00:48:17 45° SE
ISS -3.4 00:48:19 65° NNE 00:48:19 65° NNE 00:51:21 10° ENE
NOSS 2-1 (C) 4.4 00:48:04 10° NW 00:52:53 73° NE 00:59:44 10° SE
RESURS DK-1 3.4 00:49:48 10° NW 00:52:35 32° WNW 00:52:35 32° WNW
Cosmos 1867 3.7 00:52:08 40° WSW 00:53:59 65° NW 00:59:28 10° NNE
UNK 3.6 00:53:30 53° SSW 00:54:28 71° WSW 00:59:05 10° NNW
CZ-2D R/B 2.1 00:50:59 10° NNE 00:56:28 80° WNW 00:58:21 42° SSW
MINOTAUR 4 R/B 3.9 00:57:02 83° SSW 00:57:08 85° WSW 01:00:44 10° NNW
Cosmos 1727 Rocket 4.0 00:54:28 34° S 00:57:26 85° E 01:03:49 10° N
NOSS 2-1 (D) 4.3 00:54:45 10° NW 00:59:37 80° NE 01:06:32 10° SE
COSMOS 2487 2.3 00:57:37 10° NNW 01:01:02 80° ENE 01:01:12 76° ESE
ATLAS CENTAUR R/B 1.0 01:02:36 69° W 01:02:55 75° NW 01:06:44 10° NE
USA 281 3.9 01:09:03 30° WSW 01:10:13 32° WSW 01:15:59 10° NW
CZ-4C R/B 4.4 01:10:08 11° SE 01:14:12 49° ENE 01:18:22 10° N
Cosmos 1758 3.5 01:10:55 10° N 01:15:01 73° E 01:17:02 29° SSE
Geosat FO 4.3 01:11:41 10° NNE 01:15:03 85° ESE 01:15:31 63° SSW
Cosmos 1707 2.6 01:20:58 43° S 01:22:08 84° E 01:25:59 10° N
Cosmos 1674 4.1 01:21:51 17° SSE 01:24:18 34° E 01:27:48 10° NNE
Meteor 2-10 4.2 01:19:17 10° NNW 01:24:39 56° W 01:27:05 30° SSW
Cosmos 1315 Rocket 3.2 01:21:59 10° N 01:25:55 63° ENE 01:28:56 16° SSE
Meteor 1-21 4.2 01:23:32 29° SSW 01:26:39 80° W 01:32:31 10° N
CBERS-1 4.3 01:23:30 10° NNE 01:28:35 65° ESE 01:31:55 22° S
IDEFIX/ARIANE 42P 3.3 01:24:03 10° NNE 01:29:11 51° E 01:33:19 15° S
Cosmos 1400 Rocket 3.5 01:26:37 10° NNW 01:30:26 37° W 01:31:01 35° WSW
Resurs 1-4 Rocket 2.8 01:25:33 10° N 01:30:27 41° WNW 01:32:45 27° WSW
Cosmos 1725 Rocket 4.5 01:26:15 10° N 01:32:30 62° ENE 01:38:40 10° SSE
ADEOS II 2.0 01:27:54 10° NNE 01:33:11 80° WNW 01:36:09 27° SSW
Cosmos 2369 Rocket 4.1 01:31:09 11° W 01:34:55 19° NW 01:38:56 10° N
Cosmos 1975 Rocket 3.1 01:36:21 24° S 01:38:58 76° E 01:43:20 10° NNE
Cosmos 1908 4.1 01:37:32 10° N 01:41:19 50° ENE 01:45:06 10° SSE
USA 276 4.2 01:41:48 16° SSE 01:42:18 16° SE 01:44:23 10° E
Cosmos 1656 4.4 01:39:20 16° S 01:43:27 47° ESE 01:48:42 10° NE
CZ-3B R/B 3.8 01:28:48 17° SW 01:44:24 85° NW 01:49:08 10° NE
ARGOS Delta rocket 4.0 01:40:54 10° N 01:45:16 52° WNW 01:47:32 27° SW
Tianhe-1 2.1 01:46:44 30° S 01:46:44 30° S 01:49:27 10° ESE
Lacrosse 5 2.2 01:45:07 25° SSW 01:47:57 55° SE 01:52:56 10° ENE
Cosmos 1470 3.7 01:46:18 10° NNW 01:49:41 29° W 01:50:26 27° WSW
SL-08 R/B 4.0 01:45:34 10° SSE 01:50:12 55° ENE 01:54:47 10° N
Cosmos 2016 Rocket 4.0 01:46:36 10° N 01:52:56 83° W 01:59:09 10° S
IRS-1C 4.5 01:48:32 10° NNE 01:53:52 65° ESE 01:58:53 11° S
Cosmos 1459 Rocket 4.1 01:49:41 10° NNW 01:55:49 55° W 02:01:05 14° SSW
BREEZE-M DEB (TANK) 4.1 01:53:33 22° SW 01:57:00 62° SE 02:13:35 10° ENE
Cosmos 2251 Rocket 3.5 01:52:03 10° NNW 01:57:20 89° WSW 02:02:34 10° SSE
MSX 4.1 01:52:51 10° NNE 01:58:38 67° ESE 02:04:22 10° S
Okean 1 Rocket 4.3 01:55:40 10° NW 01:59:10 23° W 02:00:22 21° WSW
IRS-1D 3.8 01:55:26 10° N 02:00:38 57° WNW 02:04:21 19° SW
Cosmos 2173 Rocket 4.2 01:55:42 10° NNW 02:01:34 49° W 02:06:41 14° SSW
CZ-4B R/B 3.8 01:57:46 10° NNE 02:02:39 65° ESE 02:07:37 10° S
Cosmos 1726 3.5 02:00:59 10° NW 02:03:52 22° W 02:04:34 20° WSW
Cosmos 44 Rocket 4.1 02:01:15 10° NW 02:05:52 32° WSW 02:10:23 10° S
Cosmos 1697 Rocket 3.9 02:01:21 10° S 02:06:28 38° ESE 02:11:36 10° NE
COSMOS 2455 2.8 02:01:07 10° NW 02:07:09 75° WSW 02:13:08 10° SSE
Cosmos 1802 Rocket 4.1 02:02:23 10° NNW 02:08:22 54° W 02:14:17 10° SSW
SL-16 R/B 3.8 02:06:09 17° WSW 02:08:31 21° W 02:13:08 10° NW
Meteor 1-28 Rocket 3.9 02:07:32 22° SW 02:09:10 32° W 02:12:33 10° NNW
Cosmos 1980 Rocket 4.2 02:11:01 10° SSE 02:15:29 24° ESE 02:19:56 10° NE
Cosmos 1626 2.2 02:13:44 11° S 02:17:19 77° E 02:21:02 10° NNE
Cosmos 2227 Rocket 2.2 02:13:37 10° NNW 02:19:18 88° WSW 02:24:57 10° SSE
CZ-2C R/B 3.8 02:14:53 10° NNE 02:19:37 40° E 02:24:25 10° SSE
GP-B 3.1 02:15:21 10° N 02:19:45 63° W 02:24:08 10° SSW
Cosmos 1953 2.6 02:17:35 10° NNW 02:21:23 44° W 02:25:10 10° SSW
Cosmos 2297 Rocket 2.2 02:17:50 10° NNW 02:23:28 65° WSW 02:29:03 10° SSE
ISS -2.3 02:21:57 10° WNW 02:25:06 35° N 02:28:16 10° ENE
Cosmos 2123 Rocket 4.2 02:23:04 11° SSW 02:28:53 55° WNW 02:34:59 10° N
Cosmos 2082 4.3 02:23:16 10° NNW 02:28:55 62° ENE 02:34:34 10° SE
ADEOS Rocket 3.9 02:23:26 10° SSW 02:30:07 41° W 02:37:18 10° NNW
ALOS 4.2 02:28:05 10° NE 02:32:08 28° E 02:36:09 10° SSE
Cosmos 1340 4.3 02:30:09 10° SSE 02:33:33 33° E 02:36:57 10° NNE
IRS-P3 4.3 02:28:54 10° N 02:34:11 60° WNW 02:39:25 10° SSW
Cosmos 1544 Rocket 3.8 02:30:17 10° NNW 02:34:30 47° W 02:38:42 10° SSW
Cosmos 371 Rocket 3.4 02:30:01 12° SSW 02:34:32 67° WNW 02:39:26 10° NNE
Cosmos 1025 Rocket 3.2 02:31:16 10° SSW 02:35:25 54° WNW 02:39:42 10° N
CZ-2D R/B 4.1 02:32:47 10° NNW 02:35:39 15° NW 02:38:29 10° W
Cosmos 332 Rocket 3.9 02:31:07 10° SSW 02:36:01 83° ESE 02:40:56 10° NNE
CZ-2C R/B 3.1 02:41:51 10° S 02:42:26 10° S 02:43:00 10° SSE
ATLAS CENTAUR R/B 3.6 02:40:30 10° WNW 02:42:30 14° NNW 02:44:32 10° N
Lacrosse 4 Rocket 3.1 02:38:59 10° S 02:42:58 32° ESE 02:46:56 10° NE
ARIANE 5 R/B 2.7 02:38:38 10° N 02:43:46 61° WNW 02:48:48 10° SSW
Cosmos 1455 Rocket 4.3 02:42:11 10° NW 02:45:36 23° W 02:49:02 10° SW
IRAS Rocket 4.5 02:40:48 10° SSE 02:46:21 78° ENE 02:51:59 10° NNW
CZ-2D R/B 3.6 02:43:33 10° N 02:47:52 66° WNW 02:52:13 10° SSW
Cosmos 1536 Rocket 3.6 02:47:45 10° SSW 02:52:04 63° W 02:56:28 10° N
Cosmos 1190 Rocket 4.1 02:48:19 10° NNW 02:53:34 86° ENE 02:58:47 10° SSE
Cosmos 2219 3.6 02:49:01 10° NW 02:54:22 43° WSW 02:59:43 10° S
CZ-2C R/B 2.9 02:54:14 10° NNE 02:58:12 87° ESE 03:02:12 10° SSW
FENGYUN 3A 4.4 02:53:28 10° NNE 02:58:46 56° E 03:04:02 10° S
Cosmos 1140 Rocket 3.5 02:54:41 10° NNW 02:59:53 74° WSW 03:05:05 10° SSE
Cosmos 1674 4.3 02:57:04 10° WSW 02:59:54 19° WNW 03:02:45 10° NNW
